Regional Weather Roundup
Issued by NWS

Home | Current Version | Previous Version | Text Only | Print | Product List | Glossary Off
Versions: 1 2 3 4 5 6 7 8 9 10 11 12 13 14 15 16 17 18 19 20 21 22 23 24 25 26 27 28 29 30 31 32 33 34 35 36 37 38 39 40 41 42 43 44 45 46 47 48 49 50

000
ASUS45 KPSR 280210
RWRAZ

ARIZONA HOURLY REGIONAL WEATHER ROUNDUP
NATIONAL WEATHER SERVICE PHOENIX AZ
700 PM MST FRI MAY 27 2016

NOTE: FAIR INDICATES FEW OR NO CLOUDS BELOW 12,000 FEET WITH NO
SIGNIFICANT WEATHER AND/OR OBSTRUCTIONS TO VISIBILITY.

AZZ001>003-036-280300-
NORTHWEST ARIZONA

CITY           SKY/WX    TMP DP  RH WIND       PRES   REMARKS
KINGMAN        PTCLDY    80  26  13 W9        29.85R
$$

AZZ004>008-015-016-018-280300-
NORTH CENTRAL ARIZONA

CITY           SKY/WX    TMP DP  RH WIND       PRES   REMARKS
GRAND CANYON   PTCLDY    64  26  23 CALM      30.02R
WILLIAMS       MOCLDY    64  23  20 W13G20    30.09R
PRESCOTT       PTCLDY    72  25  17 W12G20    29.94R
FLAGSTAFF      MOCLDY    63  27  25 SW6       30.05R
PAYSON         CLEAR     72  25  17 SW8G14    29.97R
PAGE           PTCLDY    76  29  17 NW8       29.86R
$$

AZZ009>014-017-280300-
NORTHEAST ARIZONA

CITY           SKY/WX    TMP DP  RH WIND       PRES   REMARKS
WINSLOW        MOCLDY    72  29  20 N8        29.92R
SAINT JOHNS    PTCLDY    66  24  20 NW6       29.96R
WINDOW ROCK    CLOUDY    65  21  18 W8        30.00R
SHOW LOW       PTCLDY    63  25  23 CALM      30.02S
$$

AZZ023-280300-
GREATER PHOENIX AREA

CITY           SKY/WX    TMP DP  RH WIND       PRES   REMARKS
PHOENIX        CLEAR     89  28  11 SW9       29.71S
BUCKEYE        CLEAR     86  36  16 S9        29.74S
GLENDALE       CLEAR     91  21   8 SW8       29.73S
LUKE AFB       CLEAR     90  33  13 S12       29.71S
DEER VALLEY    CLEAR     87  27  11 SW8       29.73S
SCOTTSDALE     CLEAR     88  25  10 W7        29.75S
MESA-FALCON    CLEAR    N/A N/A N/A CALM      29.72
MESA-GATEWAY   CLEAR     88  30  12 SW6       29.75S
CHANDLER       CLEAR     90  27  10 W7        29.73S
$$

AZZ027-028-280300-
SOUTHWEST MARICOPA COUNTY AND PINAL COUNTY

CITY           SKY/WX    TMP DP  RH WIND       PRES   REMARKS
CASA GRANDE    CLEAR     88  28  11 N3        29.77R
GILA BEND      FAIR      89  28  11 NW8       29.71S
$$

AZZ503-504-507>509-280300-
SOUTHEAST ARIZONA

CITY           SKY/WX    TMP DP  RH WIND       PRES   REMARKS
TUCSON         CLEAR     84  25  11 N9        29.82S
DAVIS-MONTHAN  CLEAR     83  24  11 N13       29.81R
RYAN FIELD     CLEAR     84  28  13 NW13      29.81R
NOGALES        CLEAR     79  16   9 SW9       29.89R
SIERRA VISTA   CLEAR     75  12   9 W10       29.94R
DOUGLAS        CLEAR     79  11   7 W13       29.89R
SAFFORD        CLEAR     82  20  10 NW14      29.81R
$$

AZZ020-021-025-026-031-280300-
SOUTHWEST ARIZONA

CITY           SKY/WX    TMP DP  RH WIND       PRES   REMARKS
YUMA           CLEAR     90  40  17 W6        29.71R
$$

CAZ031-033-041-043-047-048-061-280300-
SOUTHERN CALIFORNIA

CITY           SKY/WX    TMP DP  RH WIND       PRES   REMARKS
DOWNTOWN L.A.  CLEAR     66  56  70 W6        29.85R
L.A. AIRPORT   PTSUNNY   61  55  81 SW13      29.86R
SAN DIEGO      CLOUDY    64  54  69 SW5       29.89F
BURBANK        SUNNY     68  55  63 S12       29.83R
ONTARIO        PTCLDY    71  54  54 SW15G21   29.82R
RIVERSIDE      CLEAR     72  52  49 W14       29.82R
PALM SPRINGS   PTCLDY    91  43  18 NW21      29.70R
EL CENTRO NAS  CLEAR     92  32  12 SE6       29.69S
IMPERIAL       CLEAR     93  33  12 SE8       29.67S
BLYTHE         CLEAR     91  40  16 S14       29.69R
NEEDLES        CLEAR     93  30  10 SW12G21   29.68S
$$

NVZ020-UTZ003-280300-
SOUTHERN NEVADA-UTAH

CITY           SKY/WX    TMP DP  RH WIND       PRES   REMARKS
LAS VEGAS      PTCLDY    88  25  10 SW5       29.70S
SALT LAKE CITY MOCLDY    68  39  34 N12       29.89R
$$

NMZ009-TXZ055-280300-
NEW MEXICO-WEST TEXAS

CITY           SKY/WX    TMP DP  RH WIND       PRES   REMARKS
ALBUQUERQUE    MOCLDY    70  26  19 S9G21     29.91R
EL PASO        CLEAR     80  15   8 W15G21    29.86R
$$


........................KEY........................
SKY/WX - SKY CONDITION/WEATHER
TMP    - TEMPERATURE IN FAHRENHEIT
DP     - DEW POINT IN FAHRENHEIT
RH     - RELATIVE HUMIDITY IN PERCENT
WIND   - DIRECTION AND SPEED IN MILES PER HOUR (MPH)
VRB    - VARIABLE WIND DIRECTION
PRES   - MEAN SEA LEVEL PRESSURE IN INCHES OF MERCURY
         F - FALLING PRESSURE   R - RISING PRESSURE
         S - STEADY PRESSURE
VSB    - VISIBILITY IN MILES
HX     - HEAT INDEX IN FAHRENHEIT
WCI    - WIND CHILL INDEX IN FAHRENHEIT
TC     - TEMPERATURE IN CELSIUS WHICH IS ALSO KNOWN AS
         TEMPERATURE IN CENTIGRADE
AFB    - AIR FORCE BASE
         LUKE AFB IS LUKE AIR FORCE BASE
         DAVIS-MONTHAN IS DAVIS-MONTHAN AIR FORCE BASE
NAS    - NAVAL AIR STATION
         EL CENTRO NAS IS EL CENTRO NAVAL AIR STATION
N/A    - NOT AVAILABLE




USA.gov is the U.S. government's official web portal to all federal, state and local government web resources and services.